1300752027575,0.696591
1300752087575,0.705161
1300752147575,0.704510
1300752207575,0.701416
1300752267575,0.708322
1300752327575,0.705227
1300752387575,0.696549
1300752447575,0.696292
1300752507575,0.702205
1300752567575,0.698575
1300752627575,0.694643
1300752687575,0.698259
1300752747575,0.703825
1300752807575,0.700887
1300752867575,0.702736
1300752927575,0.701583
1300752987575,0.697747
1300753047575,0.699916
1300753107575,0.697879
1300753167575,0.698769
1300753227575,0.699773
1300753287575,0.692855
1300753347575,0.692661
1300753407575,0.707234
1300753467575,0.697698
1300753527575,0.708064
1300753587575,0.739360
1300753647575,0.698987
1300753707575,0.708411
1300753767575,0.711779
1300753827575,0.709972
1300753887575,0.706534
1300753947575,0.695906
1300754007575,0.705063
1300754067575,0.701958
1300754127575,0.703124
1300754187575,0.701208
1300754247575,0.704370
1300754307575,0.707539
1300754367575,0.704125
1300754427575,0.698352
1300754487575,0.702765
1300754547575,0.699561
1300754607575,0.700729
1300754667575,0.696038
1300754727575,0.696456
1300754787575,0.691243
1300754847575,0.695935
1300754907575,0.690235
1300754967575,0.699568
1300755027575,0.696845
1300755087575,0.698152
1300755147575,0.689394
1300755207575,0.696174
1300755267575,0.693293
1300755327575,0.699304
1300755387575,0.699637
1300755447575,0.696270
1300755507575,0.696149
1300755567575,0.689607
1300755627587,0.700687
1300755687587,0.696510
1300755747587,0.698579
1300755807587,0.693360
1300755867587,0.695860
1300755927587,0.690638
1300755987587,0.694198
1300756047587,0.693226
1300756107587,0.685489
1300756167587,0.688201
1300756227587,0.691195
1300756287587,0.692482
1300756347587,0.685749
1300756407587,0.696389
1300756467587,0.697738
1300756527587,0.686206
1300756587587,0.696298
1300756647587,0.693618
1300756707587,0.695368
1300756767587,0.694202
1300756827587,0.686503
1300756887587,0.698336
1300756947587,0.697088
1300757007587,0.694307
1300757067587,0.691798
1300757127587,0.692773
1300757187587,0.692847
1300757247587,0.695679
1300757307587,0.690903
1300757367587,0.697104
1300757427587,0.696734
1300757487587,0.699435
1300757547587,0.700429
1300757607587,0.690207
1300757667587,0.694177
1300757727587,0.696413
1300757787587,0.701242
1300757847587,0.697249
1300757907587,0.691129
1300757967587,0.694597
1300758027587,0.693475
1300758087587,0.690300
1300758147587,0.694561
1300758207587,0.693116
1300758267587,0.687206
1300758327587,0.683326
1300758387587,0.690626
1300758447587,0.690681
1300758507587,0.696801
1300758567587,0.690423
1300758627587,0.690549
1300758687587,0.685233
1300758747587,0.684743
1300758807587,0.689299
1300758867587,0.690911
1300758927587,0.693052
1300758987587,0.692988
1300759047587,0.689297
1300759107587,0.688813
1300759167587,0.683872
1300759227599,0.688356
1300759287599,0.685042
1300759347599,0.683316
1300759407599,0.683102
1300759467599,0.684562
1300759527599,0.692009
1300759587599,0.685959
1300759647599,0.686115
1300759707599,0.688005
1300759767599,0.693670
1300759827599,0.687792
1300759887599,0.687242
1300759947599,0.678794
1300760007599,0.687150
1300760067599,0.682077
1300760127599,0.695346
1300760187599,0.694394
1300760247599,0.690052
1300760307599,0.678786
1300760367599,0.685223
1300760427599,0.689807
1300760487599,0.690676
1300760547599,0.690253
1300760607599,0.686114
1300760667599,0.683881
1300760727599,0.689642
1300760787599,0.687330
1300760847599,0.687828
1300760907599,0.682397
1300760967599,0.685208
1300761027599,0.681858
1300761087599,0.689499
1300761147599,0.686665
1300761207599,0.688250
1300761267599,0.681007
1300761327599,0.685131
1300761387599,0.682376
1300761447599,0.685440
1300761507599,0.678663
1300761567599,0.685843
1300761627599,0.687226
1300761687599,0.686083
1300761747599,0.684650
1300761807599,0.686218
1300761867599,0.690094
1300761927599,0.679554
1300761987599,0.692948
1300762047599,0.684427
1300762107599,0.685235
1300762167599,0.687527
1300762227599,0.689035
1300762287599,0.695996
1300762347599,0.684019
1300762407599,0.684912
1300762467599,0.689028
1300762527599,0.686309
1300762587599,0.690321
1300762647599,0.689389
1300762707599,0.689268
1300762767599,0.692070
1300762827611,0.700649
1300762887611,0.688919
1300762947611,0.692893
1300763007611,0.685979
1300763067611,0.696040
1300763127611,0.683449
1300763187611,0.686394
1300763247611,0.686675
1300763307611,0.691451
1300763367611,0.693020
1300763427611,0.688133
1300763487611,0.693947
1300764027611,0.679654
1300764087611,0.690456
1300764147611,0.694050
1300764207611,0.695975
1300764267611,0.705002
1300764327611,0.711792
1300764387611,0.727170
1300764447611,0.731106
1300764507611,0.725552
1300764567611,0.722660
1300764627611,0.722523
1300764687611,0.715033
1300764747611,0.721846
1300764807611,0.733011
1300764867611,0.728747
1300764927611,0.746750
1300764987611,0.763331
1300765047611,0.765850
1300765107611,0.792013
1300765167611,0.804510
1300765227611,0.801530
1300765287611,0.795230
1300765347611,0.773193
1300765407611,0.735657
1300765467611,0.714110
1300765527611,0.705825
1300765587611,0.699559
1300765647611,0.689335
1300765707611,0.686273
1300765767611,0.685498
1300765827611,0.684127
1300765887611,0.683410
1300765947611,0.678796
1300766007611,0.681408
1300766067611,0.684773
1300766127611,0.688462
1300766187611,0.685392
1300766247611,0.693692
1300766307611,0.678025
1300766367611,0.690209
1300766427623,0.691564
1300766487623,0.695331
1300766547623,0.702144
1300766607623,0.691548
1300766667623,0.694120
1300766727623,0.693637
1300766787623,0.691158
1300766847623,0.695872
1300766907623,0.697870
1300766967623,0.699182
1300767027623,0.700298
1300767087623,0.700724
1300767147623,0.697394
1300767207623,0.703749
1300767267623,0.696523
1300767327623,0.692573
1300767387623,0.695478
1300767447623,0.692908
1300767507623,0.696057
1300767567623,0.687755
1300767627623,0.694967
1300767687623,0.700537
1300767747623,0.699358
1300767807623,0.702076
1300767867623,0.696715
1300767927623,0.710150
1300767987623,0.698420
1300768047623,0.710564
1300768107623,0.704205
1300768167623,0.702814
1300768227623,0.709346
1300768287623,0.708488
1300768347623,0.709061
1300768407623,0.720822
1300768467623,0.712780
1300768527623,0.729756
1300768587623,0.733459
1300768647623,0.729335
1300768707623,0.738984
1300768767623,0.737378
1300768827623,0.743061
1300768887623,0.743354
1300768947623,0.732130
1300769007623,0.740819
1300769067623,0.729434
1300769127623,0.731052
1300769187623,0.726207
1300769247623,0.733474
1300769307623,0.729202
1300769367623,0.726425
1300769427623,0.724734
1300769487623,0.722129
1300769547623,0.718237
1300769607623,0.719739
1300769667623,0.716927
1300769727623,0.713013
1300769787623,0.708089
1300769847623,0.707994
1300769907623,0.711650
1300769967623,0.703817
1300770027635,0.706494
1300770087635,0.698751
1300770147635,0.707537
1300770207635,0.696228
1300770267635,0.693428
1300770327635,0.702782
1300770387635,0.693837
1300770447635,0.698696
1300770507635,0.696372
1300770567635,0.698507
1300770627635,0.694076
1300770687635,0.696950
1300770747635,0.698693
1300770807635,0.694331
1300770867635,0.688389
1300770927635,0.691848
1300770987635,0.694651
1300771047635,0.686987
1300771107635,0.687953
1300771167635,0.686257
1300771227635,0.689805
1300771287635,0.687777
1300771347635,0.692613
1300771407635,0.691780
1300771467635,0.690774
1300771527635,0.684074
1300771587635,0.685751
1300771647635,0.688221
1300771707635,0.686312
1300771767635,0.689116
1300771827635,0.685322
1300771887635,0.687852
1300771947635,0.689787
1300772007635,0.688281
1300772067635,0.683632
1300772127635,0.691276
1300772187635,0.681454
1300772247635,0.684234
1300772307635,0.679117
1300772367635,0.687544
1300772427635,0.680850
1300772487635,0.682405
1300772547635,0.685707
1300772607635,0.683841
1300772667635,0.680087
1300772727635,0.688371
1300772787635,0.679711
1300772847635,0.684360
1300772907635,0.687841
1300772967635,0.683969
1300773027635,0.682721
1300773087635,0.682149
1300773147635,0.686307
1300773207635,0.689799
1300773267635,0.684561
1300773327635,0.686926
1300773387635,0.678321
1300773447635,0.689618
1300773507635,0.686129
1300773567635,0.685722
1300773627647,0.680210
1300773687647,0.682437
1300773747647,0.686006
1300773807647,0.688065
1300773867647,0.683548
1300773927647,0.682850
1300773987647,0.678360
1300774047647,0.680461
1300774107647,0.689175
1300774167647,0.687611
1300774227647,0.682395
1300774287647,0.694981
1300774347647,0.686453
1300774407647,0.692811
1300774467647,0.691480
1300774527647,0.689183
1300774587647,0.685498
1300774647647,0.681607
1300774707647,0.688620
1300788027691,0.702270
1300788087691,0.705466
1300788147691,0.706388
1300788207691,0.703546
1300788267691,0.704327
1300788327691,0.707216
1300788387691,0.703712
1300788447691,0.704857
1300788507691,0.713013
1300788567691,0.706197
1300788627691,0.703931
1300788687691,0.701165
1300788747691,0.715414
1300788807691,0.702166
1300788867691,0.704013
1300788927691,0.710646
1300788987691,0.708641
1300789047691,0.711500
1300789107691,0.709289
1300789167691,0.704672
1300789227691,0.709621
1300789287691,0.705355
1300789347691,0.700736
1300789407691,0.707130
1300789467691,0.702188
1300789527691,0.697602
1300789587691,0.699342
1300789647691,0.700055
1300789707691,0.699735
1300789767691,0.700289
1300789827691,0.693807
1300789887691,0.690197
1300789947691,0.696617
1300790007691,0.697592
1300790067691,0.694523
1300790127691,0.697359
1300790187691,0.698677
1300790247691,0.690457
1300790307691,0.699630
1300790367691,0.696296
1300790427691,0.694108
1300790487691,0.690259
1300790547691,0.700886
1300790607691,0.698081
1300790667691,0.693526
1300790727691,0.694439
1300790787691,0.695058
1300790847691,0.699738
1300790907691,0.696409
1300790967691,0.695063
1300791027691,0.692640
1300791087691,0.686305
1300791147691,0.695076
1300791207691,0.684708
1300791267691,0.694685
1300791327691,0.686318
1300791387691,0.688195
1300791447691,0.689606
1300791507691,0.696370
1300791567691,0.693765
1300791627703,0.689225
1300791687703,0.686589
1300791747703,0.687597
1300791807703,0.690889
1300791867703,0.691553
1300791927703,0.686679
1300791987703,0.695972
1300792047703,0.688032
1300792107703,0.691264
1300792167703,0.695945
1300792227703,0.694942
1300792287703,0.692792
1300792347703,0.697172
1300792407703,0.691957
1300792467703,0.694244
1300792527703,0.699098
1300792587703,0.694236
1300792647703,0.691487
1300792707703,0.693420
1300792767703,0.694062
1300792827703,0.698621
1300792887703,0.689691
1300792947703,0.694606
1300793007703,0.693692
1300793067703,0.682679
1300793127703,0.691365
1300793187703,0.694061
1300793247703,0.695451
1300793307703,0.686395
1300793367703,0.694094
1300793427703,0.691513
1300793487703,0.692082
1300793547703,0.693734
1300793607703,0.699315
1300793667703,0.697986
1300793727703,0.691971
1300793787703,0.699512
1300793847703,0.699230
1300793907703,0.702147
1300793967703,0.705822
1300794027703,0.703844
1300794087703,0.704926
1300794147703,0.703246
1300794207703,0.707899
1300794267703,0.699398
1300794327703,0.699394
1300794387703,0.706164
1300794447703,0.702085
1300794507703,0.701223
1300794567703,0.705374
1300794627703,0.698473
1300794687703,0.706855
1300794747703,0.713539
1300794807703,0.703521
1300794867703,0.697588
1300794927703,0.705317
1300794987703,0.703870
1300795047703,0.699186
1300795107703,0.693843
1300795167703,0.702328
1300795227714,0.700203
1300795287714,0.692626
1300795347714,0.709853
1300795407714,0.699652
1300795467714,0.702830
1300795527714,0.706952
1300795587714,0.706978
1300795647715,0.703682
1300795707715,0.701881
1300795767715,0.705101
1300795827715,0.701865
1300795887714,0.697752
1300795947714,0.702444
1300796007715,0.707832
1300796067715,0.699951
1300796127715,0.711814
1300796187715,0.706778
1300796247715,0.703061
1300796307715,0.707668
1300796367715,0.701852
1300796427715,0.706793
1300796487715,0.715285
1300796547714,0.716921
1300796607714,0.712974
1300796667714,0.719492
1300796727714,0.716595
1300796787714,0.710737
1300796847714,0.714941
1300796907714,0.713254
1300796967714,0.715063
1300797027715,0.710167
1300797087715,0.712080
1300797147715,0.717936
1300797207715,0.713618
1300797267714,0.712114
1300797327715,0.709559
1300797387715,0.715062
1300797447715,0.713112
1300797507715,0.712881
1300797567715,0.712619
1300797627715,0.703964
1300797687715,0.702032
1300797747715,0.700540
1300797807715,0.703000
1300797867715,0.707403
1300797927714,0.703105
1300797987714,0.707000
1300798047714,0.699471
1300798107714,0.705023
1300798167714,0.699924
1300798227714,0.698374
1300798287714,0.704215
1300798347715,0.705204
1300798407715,0.700487
1300798467715,0.708304
1300798527715,0.701717
1300798587714,0.700247
1300798647714,0.699504
1300798707715,0.703146
1300798767715,0.693663
1300798827726,0.702449
1300798887726,0.699961
1300798947726,0.697622
1300799007726,0.692354
1300799067726,0.689655
1300799127726,0.691354
1300799187726,0.694453
1300799247726,0.694908
1300799307726,0.699532
1300799367726,0.697971
1300799427726,0.694612
1300799487726,0.690294
1300799547726,0.694352
1300799607726,0.690368
1300799667726,0.691058
1300799727726,0.694350
1300799787726,0.691134
1300799847726,0.684408
1300799907726,0.691823
1300799967726,0.691958
1300800027726,0.688352
1300800087726,0.694600
1300800147726,0.679477
1300800207726,0.695459
1300800267726,0.696156
1300800327726,0.691691
1300800387726,0.685943
1300800447726,0.689004
1300800507726,0.701041
1300800567726,0.698181
1300800627726,0.703016
1300800687726,0.691246
1300800747726,0.698133
1300800807726,0.697487
1300800867726,0.694121
1300800927726,0.700942
1300800987726,0.703004
1300801047726,0.690286
1300801107726,0.696194
1300801167726,0.704480
1300801227726,0.699525
1300801287726,0.696404
1300801347726,0.698491
1300801407726,0.707571
1300801467726,0.697153
1300801527726,0.706967
1300801587726,0.697670
1300801647726,0.702313
1300801707726,0.699921
1300801767726,0.697047
1300801827726,0.695321
1300801887726,0.694052
1300801947726,0.696143
1300802007726,0.700587
1300802067726,0.701251
1300802127726,0.697654
1300802187726,0.701336
1300802247726,0.699148
1300802307726,0.700052
1300802367726,0.705736
1300802427738,0.702388
1300802487738,0.702096
1300802547738,0.702037
1300802607738,0.698820
1300802667738,0.701474
1300802727738,0.707130
1300802787738,0.707487
1300802847738,0.707336
1300802907738,0.712337
1300802967738,0.704547
1300803027738,0.708842
1300803087738,0.707583
1300803147738,0.717569
1300803207738,0.715343
1300803267738,0.713340
1300803327738,0.710462
1300803387738,0.707767
1300803447738,0.711637
1300803507738,0.704849
1300803567738,0.706858
1300803627738,0.704518
1300803687738,0.702316
1300803747738,0.704729
1300803807738,0.707565
1300803867738,0.704357
1300803927738,0.702386
1300803987738,0.707857
1300804047738,0.698287
1300804107738,0.692188
1300804167738,0.695974
1300804227738,0.697431
1300804287738,0.702155
1300804347738,0.698279
1300804407738,0.697271
1300804467738,0.703479
1300804527738,0.696117
1300804587738,0.695738
1300804647738,0.693797
1300804707738,0.702814
1300804767738,0.696131
1300804827738,0.695321
1300804887738,0.695372
1300804947738,0.699460
1300805007738,0.689060
1300805067738,0.701066
1300805127738,0.705048
1300805187738,0.700169
1300805247738,0.693952
1300805307738,0.704420
1300805367738,0.700509
1300805427738,0.696433
1300805487738,0.699866
1300805547738,0.693612
1300805607738,0.695939
1300805667738,0.697298
1300805727738,0.692556
1300805787738,0.702003
1300805847738,0.697283
1300805907738,0.705640
1300805967738,0.703033
1300806027750,0.694938
1300806087750,0.700505
1300806147750,0.694311
1300806207750,0.708804
1300806267750,0.694102
1300806327750,0.706464
1300806387750,0.701355
1300806447750,0.702055
1300806507750,0.702942
1300806567750,0.706251
1300806627750,0.707354
1300806687750,0.703274
1300806747750,0.709679
1300806807750,0.701101
1300806867750,0.709133
1300806927750,0.702569
1300806987750,0.713318
1300807047750,0.701146
1300807107750,0.708887
1300807167750,0.699619
1300807227750,0.704501
1300807287750,0.699607
1300807347750,0.707332
1300807407750,0.703558
1300807467750,0.706770
1300807527750,0.710335
1300807587750,0.703357
1300807647750,0.701159
1300807707750,0.704481
1300807767750,0.700781
1300807827750,0.702700
1300807887750,0.699893
1300807947750,0.699776
1300808007750,0.694221
1300808067750,0.692279
1300808127750,0.697032
1300808187750,0.695495
1300808247750,0.702011
1300808307750,0.699709
1300808367750,0.697731
1300808427750,0.695920
1300808487750,0.690174
1300808547750,0.700621
1300808607750,0.701233
1300808667750,0.700857
1300808727750,0.708875
1300808787750,0.716441
1300808847750,0.727663
1300808907750,0.736866
1300808967750,0.761897
1300809027750,0.777395
1300809087750,0.789790
1300809147750,0.805360
1300809207750,0.807317
1300809267750,0.789424
1300809327750,0.794368
1300809387750,0.789929
1300809447750,0.789384
1300809507750,0.781285
1300809567750,0.783452
1300809627761,0.778882
1300809687761,0.776747
1300809747761,0.771797
1300809807761,0.770626
1300809867761,0.772365
1300809927761,0.763314
1300809987761,0.768844
1300810047761,0.754863
1300810107761,0.761816
1300810167761,0.759236
1300810227761,0.748245
1300810287761,0.751242
1300810347761,0.745814
1300810407761,0.741632
1300810467761,0.744837
1300810527761,0.743609
1300810587761,0.746532
1300810647761,0.745314
1300810707761,0.743272
1300810767761,0.734511
1300810827761,0.733123
1300810887761,0.732861
1300810947761,0.729326
1300811007761,0.727307
1300811067761,0.734598
1300811127761,0.730678
1300811187761,0.732569
1300811247761,0.727926
1300811307761,0.726151
1300811367761,0.726524
1300811427761,0.718407
1300811487761,0.721768
1300811547761,0.722754
1300811607761,0.720039
1300811667761,0.740715
1300811727761,0.714230
1300811787761,0.719938
1300811847761,0.714136
1300811907761,0.718864
1300811967761,0.722536
1300812027761,0.714567
1300812087761,0.707104
1300812147761,0.710710
1300812207761,0.709708
1300812267761,0.711940
1300812327761,0.705390
1300812387761,0.708171
1300812447761,0.712677
1300812507761,0.709118
1300812567761,0.710763
1300812627761,0.713639
1300812687761,0.711972
1300812747761,0.712914
1300812807761,0.706942
1300812867761,0.711623
1300812927761,0.714278
1300812987761,0.710810
1300813047761,0.715109
1300813107761,0.717441
1300813167761,0.717175
1300813227773,0.706408
1300813287773,0.712120
1300813347773,0.713527
1300813407773,0.714644
1300813467773,0.714316
1300813527773,0.712877
1300813587773,0.713186
1300813647773,0.706017
1300813707773,0.701845
1300813767773,0.705658
1300813827773,0.700238
1300813887773,0.711546
1300813947773,0.701250
1300814007773,0.706797
1300814067773,0.711182
1300814127773,0.705303
1300814187773,0.713166
1300814247773,0.699593
1300814307773,0.700462
1300814367773,0.709496
1300814427773,0.705114
1300814487773,0.702082
1300814547773,0.696548
1300814607773,0.702164
1300814667773,0.699799
1300814727773,0.697535
1300814787773,0.706701
1300814847773,0.699213
1300814907773,0.700340
1300814967773,0.693455
1300815027773,0.702560
1300815087773,0.704966
1300815147773,0.699840
1300815207773,0.705365
1300815267773,0.703445
1300815327773,0.703875
1300815387773,0.701991
1300815447773,0.702919
1300815507773,0.703477
1300815567773,0.696240
1300815627773,0.698169
1300815687773,0.704650
1300815747773,0.693134
1300815807773,0.694644
1300815867773,0.698119
1300815927773,0.702167
1300815987773,0.696930
1300816047773,0.693224
1300816107773,0.697914
1300816167773,0.701119
1300816227773,0.706332
1300816287773,0.700268
1300816347773,0.709383
1300816407773,0.716068
1300816467773,0.715639
1300816527773,0.714762
1300816587773,0.713664
1300816647773,0.722514
1300816707773,0.712396
1300816767773,0.720756
1300816827784,0.723230
1300816887784,0.714710
1300816947784,0.718100
1300817007784,0.715733
1300817067784,0.713636
1300817127784,0.718814
1300817187784,0.720482
1300817247784,0.719332
1300817307784,0.721871
1300817367784,0.717495
1300817427784,0.723611
1300817487784,0.718681
1300817547784,0.716774
1300817607784,0.717343
1300817667784,0.718543
1300817727784,0.710262
1300817787784,0.715036
1300817847784,0.709007
1300817907784,0.707218
1300817967784,0.711396
1300818027784,0.713540
1300818087784,0.714636
1300818147784,0.713242
1300818207784,0.715922
1300818267784,0.719225
1300818327784,0.715238
1300818387784,0.720500
1300818447784,0.719670
1300818507784,0.716025
1300818567784,0.713858
1300818627784,0.713312
1300818687784,0.714700
1300818747784,0.720447
1300818807784,0.712929
1300818867784,0.707070
1300818927784,0.709093
1300818987784,0.709491
1300819047784,0.709561
1300819107784,0.706222
1300819167784,0.705131
1300819227784,0.703954
1300819287784,0.711454
1300819347784,0.706347
1300819407784,0.709424
1300819467784,0.701916
1300819527784,0.700390
1300819587784,0.701944
1300819647784,0.703158
1300819707784,0.700694
1300819767784,0.705779
1300819827784,0.705073
1300819887784,0.700051
1300819947784,0.705727
1300820007784,0.703290
1300820067784,0.697527
1300820127784,0.697374
1300820187784,0.700139
1300820247784,0.696123
1300820307784,0.696401
1300820367784,0.701369
1300820427796,0.706265
1300820487796,0.701764
1300820547796,0.704829
1300820607796,0.703205
1300820667796,0.697587
1300820727796,0.703055
1300820787796,0.702530
1300820847796,0.697029
1300820907796,0.697706
1300820967796,0.697525
1300821027796,0.701952
1300821087796,0.699969
1300821147796,0.699361
1300821207796,0.693319
1300821267796,0.702125
1300821327796,0.698262
1300821387796,0.698683
1300821447796,0.698682
1300821507796,0.702170
1300821567796,0.708630
1300821627796,0.700219
1300821687796,0.698998
1300821747796,0.701763
1300821807796,0.702322
1300821867796,0.701835
1300821927796,0.703709
1300821987796,0.704781
1300822047796,0.697179
1300822107796,0.698345
1300822167796,0.705296
1300822227796,0.702390
1300822287796,0.703788
1300822347796,0.707888
1300822407796,0.709217
1300822467796,0.710909
1300822527796,0.694379
1300822587796,0.699952
1300822647796,0.707309
1300822707796,0.710835
1300822767796,0.702213
1300822827796,0.708499
1300822887796,0.709501
1300822947796,0.703342
1300823007796,0.706704
1300823067796,0.705932
1300823127796,0.701425
1300823187796,0.709802
1300823247796,0.710360
1300823307796,0.706960
1300823367796,0.710210
1300823427796,0.707355
1300823487796,0.709747
1300823547796,0.706459
1300823607796,0.708061
1300823667796,0.714245
1300823727796,0.709163
1300823787796,0.709259
1300823847796,0.708502
1300823907796,0.713165
1300823967796,0.708121
1300824027807,0.714290
1300824087807,0.711438
1300824147807,0.708698
1300824207807,0.719688
1300824267807,0.708104
1300824327807,0.705549
1300824387807,0.713485
1300824447807,0.711125
1300824507807,0.716547
1300824567807,0.711853
1300824627807,0.704260
1300824687807,0.708268
1300824747807,0.714761
1300824807807,0.708970
1300824867807,0.711064
1300824927807,0.708192
1300824987807,0.706904
1300825047807,0.712646
1300825107807,0.706884
1300825167807,0.708828
1300825227807,0.709473
1300825287807,0.706804
1300825347807,0.715499
1300825407807,0.704460
1300825467807,0.715969
1300825527807,0.707689
1300825587807,0.712648
1300825647807,0.715062
1300825707807,0.704175
1300825767807,0.711675
1300825827807,0.704780
1300825887807,0.709459
1300825947807,0.712045
1300826007807,0.716284
1300826067807,0.710582
1300826127807,0.705717
1300826187807,0.708325
1300826247807,0.713662
1300826307807,0.708827
1300826367807,0.713386
1300826427807,0.711765
1300826487807,0.706754
1300826547807,0.719285
1300826607807,0.712087
1300826667807,0.716045
1300826727807,0.714215
1300826787807,0.722381
1300826847807,0.713111
1300826907807,0.719365
1300826967807,0.717171
1300827027807,0.716596
1300827087807,0.720985
1300827147807,0.717628
1300827207807,0.718223
1300827267807,0.719747
1300827327807,0.713872
1300827387807,0.717368
1300827447807,0.724123
1300827507807,0.724269
1300827567807,0.721386
1300827627819,0.719248
1300827687819,0.723578
1300827747819,0.719623
1300827807819,0.720822
1300827867819,0.723323
1300827927819,0.721976
1300827987819,0.723011
1300828047819,0.723271
1300828107819,0.722085
1300828167819,0.724596
1300828227819,0.723011
1300828287819,0.720332